BREEZE-M DEB, 41321

Orbit data source: Space-Track

BREEZE-M DEB, 41321 is space debris in HEO originally from a launch on Thu, 17 May 2012 UTC launched from the Tyuratam Missile And Space Complex (TTMTR). Debris objects in space refer to the collection of defunct objects orbiting the Earth. Examples of debris include non-operational satellites, rocket bodies, and fragments generated from explosions, collisions, or faulty payload assembly.

Loading next visibility...
Identifier
41321, 2012-026H
Orbit
HEO
Country
Flag of CISCIS
Related business
Manufacturer
Khrunichev
Mission
Spacecraft
Bus & Motor
Unknown
Mass
Unknown
Launch date (UTC)
2012-05-17 (13 years ago)
Launch vehicle
Unknown
Launch site
Tyuratam Missile And Space Complex (TTMTR)
Object type
Payload
Rocket body
Debris
Shape & HBR
Unknown
Radar Cross Section
Medium (>0.1 m² and <1 m²)

Expand to show TLE details & history
Last TLE update: 2 days ago

TLE from 2 days ago
0 BREEZE-M DEB
1 41321U 12026H   25259.98062287 -.00000141  00000-0  00000-0 0  9994
2 41321  10.0502 161.1461 4098638   1.7724 359.3549  1.77039138 62892
Epoch: 2025-09-16T23:32Z
TLE epoch observation values (Epoch: 2025-09-16T23:32:05.815Z)
Latitude
-0.00002°
Longitude
171.96492°
Altitude
10,632.743 km
Speed
5.749 km/s
True Right ascension
10h 44m 36s
True Declination
0° 00' 00"
Sunlit
Object was in daylight at epoch
Visualization orbit readout
Latitude
Unknown
Longitude
Unknown
Altitude
Unknown
Speed
Unknown
Apparent Right ascension
Unknown
Apparent Declination
Unknown
Sunlit
N/A
Visualization observer readout
Local Sidereal Time
14:40:06
Azimuth
Unknown
Elevation
Unknown
Doppler factor
Unknown
Orbital elements
Apogee altitude
34,318.821 km
Perigee altitude
10,656.663 km
Semi-major axis
28,865.879 km
Eccentricity
0.40986
Inclination
10.0502°
RAAN
161.1461°
Arg. of periapsis
1.7724°
True anomaly
358.31053°
Mean anomaly
359.3549°
Eccentric anomaly
358.90691°
Mean motion
0.44255 °/min
Orbital period
813.46 mins
BSTAR
0
Loading maneuver chart data...
Computing Atmospheric mass density...
Loading historical data...
Loading historical data...
Loading historical data...
Loading historical data...
Loading historical data...
Loading historical data...
Loading historical data...

Documentation

Showing up to 5 results
|